• In Italy
  • List of Countries
  • For 7 days
  • Water Temperature
  • Satellite Maps
  • Weather Map
  • Weather Widgets
  • user-avatar
    Login

    Hourly Weather Vanadzor

    Today, 19 February, Monday

    Time Temperature Precipitation Wind Pressure Humidity
    00:00 -1°C° 0.7 mm 2 mps 630 mmHg 94%
    01:00 -1°C° 0.5 mm 2 mps 630 mmHg 94%
    02:00 -1°C° 0.5 mm 2 mps 630 mmHg 94%
    03:00 -1°C° 0 mm 2 mps 630 mmHg 93%
    04:00 -2°C° 0.4 mm 2 mps 630 mmHg 92%
    05:00 -2°C° 0.4 mm 2 mps 630 mmHg 92%
    06:00 0°C° 0.4 mm 1 mps 630 mmHg 91%
    07:00 0°C° 0.2 mm 1 mps 631 mmHg 89%
    08:00 +1°C° 0.2 mm 1 mps 631 mmHg 88%
    09:00 +1°C° 0.2 mm 1 mps 631 mmHg 86%
    10:00 +2°C° 0.2 mm 1 mps 631 mmHg 85%
    11:00 +3°C° 0.2 mm 1 mps 631 mmHg 83%
    12:00 +3°C° 0.2 mm 1 mps 631 mmHg 82%
    13:00 +4°C° 0.1 mm 1 mps 631 mmHg 81%
    14:00 +4°C° 0.1 mm 1 mps 631 mmHg 80%
    15:00 +4°C° 0.1 mm 1 mps 631 mmHg 79%
    16:00 +3°C° 0 mm 1 mps 631 mmHg 81%
    17:00 +2°C° 0 mm 1 mps 631 mmHg 82%
    18:00 +1°C° 0 mm 1 mps 631 mmHg 83%
    19:00 0°C° 0 mm 1 mps 631 mmHg 83%
    20:00 0°C° 0 mm 1 mps 631 mmHg 82%
    21:00 -1°C° 0 mm 1 mps 632 mmHg 82%
    22:00 -1°C° 0 mm 1 mps 632 mmHg 81%
    23:00 -1°C° 0 mm 1 mps 632 mmHg 80%

    Tomorrow, 20 February, Tuesday

    Time Temperature Precipitation Wind Pressure Humidity
    00:00 -2°C° 0 mm 1 mps 632 mmHg 79%
    01:00 -2°C° 0 mm 1 mps 632 mmHg 79%
    02:00 -2°C° 0 mm 1 mps 632 mmHg 78%
    03:00 -2°C° 0 mm 1 mps 632 mmHg 78%
    04:00 -2°C° 0 mm 1 mps 632 mmHg 78%
    05:00 -2°C° 0 mm 1 mps 632 mmHg 78%
    06:00 -2°C° 0 mm 1 mps 632 mmHg 78%
    07:00 -1°C° 0 mm 1 mps 633 mmHg 78%
    08:00 -2°C° 0 mm 2 mps 633 mmHg 78%
    09:00 -1°C° 0 mm 2 mps 633 mmHg 78%
    10:00 +1°C° 0 mm 2 mps 633 mmHg 77%
    11:00 +2°C° 0 mm 2 mps 633 mmHg 75%
    12:00 +3°C° 0 mm 2 mps 633 mmHg 74%
    13:00 +3°C° 0 mm 2 mps 633 mmHg 73%
    14:00 +3°C° 0 mm 2 mps 632 mmHg 72%
    15:00 +4°C° 0 mm 2 mps 632 mmHg 72%
    16:00 +3°C° 0 mm 1 mps 632 mmHg 74%
    17:00 +2°C° 0 mm 1 mps 632 mmHg 76%
    18:00 +1°C° 0 mm 1 mps 632 mmHg 78%
    19:00 +1°C° 0 mm 1 mps 632 mmHg 77%
    20:00 +1°C° 0 mm 1 mps 632 mmHg 76%
    21:00 0°C° 0 mm 1 mps 632 mmHg 75%
    22:00 0°C° 0 mm 1 mps 632 mmHg 76%
    23:00 0°C° 0 mm 1 mps 632 mmHg 77%

    Day after tomorrow, 21 February, Wednesday

    Time Temperature Precipitation Wind Pressure Humidity
    00:00 0°C° 0 mm 1 mps 632 mmHg 78%
    01:00 0°C° 0 mm 1 mps 632 mmHg 79%
    02:00 -1°C° 0 mm 1 mps 632 mmHg 79%
    03:00 -1°C° 0 mm 1 mps 632 mmHg 80%
    04:00 -1°C° 0.1 mm 1 mps 632 mmHg 81%
    05:00 -1°C° 0.1 mm 1 mps 632 mmHg 82%
    06:00 -1°C° 0.1 mm 1 mps 632 mmHg 82%
    07:00 0°C° 0.1 mm 1 mps 632 mmHg 81%
    08:00 +1°C° 0.1 mm 1 mps 633 mmHg 80%
    09:00 +2°C° 0.1 mm 1 mps 633 mmHg 79%
    10:00 +2°C° 0.1 mm 1 mps 633 mmHg 78%
    11:00 +3°C° 0.1 mm 1 mps 633 mmHg 77%
    12:00 +3°C° 0.1 mm 2 mps 633 mmHg 76%
    13:00 +3°C° 0.1 mm 2 mps 632 mmHg 76%
    14:00 +3°C° 0.1 mm 2 mps 632 mmHg 76%
    15:00 +4°C° 0.1 mm 2 mps 632 mmHg 76%
    16:00 +4°C° 0.1 mm 1 mps 632 mmHg 78%
    17:00 +2°C° 0.1 mm 1 mps 632 mmHg 81%
    18:00 +1°C° 0.1 mm 1 mps 631 mmHg 84%
    19:00 +1°C° 0 mm 1 mps 632 mmHg 84%
    20:00 +1°C° 0 mm 1 mps 632 mmHg 84%
    21:00 0°C° 0 mm 1 mps 632 mmHg 84%
    22:00 0°C° 0 mm 1 mps 632 mmHg 84%
    23:00 0°C° 0 mm 1 mps 632 mmHg 83%

    22 February, Thursday

    Time Temperature Precipitation Wind Pressure Humidity
    00:00 -1°C° 0 mm 0 mps 632 mmHg 83%
    01:00 0°C° 0 mm 1 mps 632 mmHg 83%
    02:00 0°C° 0 mm 1 mps 632 mmHg 82%
    03:00 -1°C° 0 mm 1 mps 632 mmHg 82%
    04:00 -1°C° 0 mm 1 mps 632 mmHg 82%
    05:00 -1°C° 0 mm 1 mps 632 mmHg 81%
    06:00 -1°C° 0 mm 1 mps 632 mmHg 80%
    07:00 0°C° 0.1 mm 1 mps 632 mmHg 79%
    08:00 +1°C° 0.1 mm 1 mps 632 mmHg 78%
    09:00 +2°C° 0.1 mm 1 mps 633 mmHg 76%
    10:00 +3°C° 0.1 mm 1 mps 632 mmHg 75%
    11:00 +3°C° 0.1 mm 2 mps 632 mmHg 73%
    12:00 +4°C° 0.1 mm 2 mps 632 mmHg 72%
    13:00 +4°C° 0 mm 2 mps 632 mmHg 71%
    14:00 +6°C° 0 mm 1 mps 631 mmHg 71%
    15:00 +6°C° 0 mm 1 mps 631 mmHg 70%
    16:00 +5°C° 0 mm 1 mps 631 mmHg 73%
    17:00 +3°C° 0 mm 1 mps 630 mmHg 76%
    18:00 +2°C° 0 mm 1 mps 630 mmHg 79%
    19:00 +2°C° 0 mm 1 mps 630 mmHg 78%
    20:00 +1°C° 0 mm 1 mps 631 mmHg 78%
    21:00 +1°C° 0 mm 1 mps 631 mmHg 77%
    22:00 +1°C° 0 mm 1 mps 631 mmHg 77%
    23:00 +1°C° 0 mm 1 mps 631 mmHg 77%

    23 February, Friday

    Time Temperature Precipitation Wind Pressure Humidity
    00:00 0°C° 0 mm 0 mps 631 mmHg 76%
    01:00 -1°C° 0 mm 0 mps 631 mmHg 77%
    02:00 -1°C° 0 mm 0 mps 631 mmHg 77%
    03:00 -1°C° 0 mm 0 mps 630 mmHg 77%
    04:00 -1°C° 0 mm 0 mps 630 mmHg 78%
    05:00 -2°C° 0 mm 0 mps 630 mmHg 78%
    06:00 -2°C° 0 mm 0 mps 630 mmHg 79%
    07:00 -1°C° 0 mm 0 mps 631 mmHg 77%
    08:00 0°C° 0 mm 0 mps 631 mmHg 76%
    09:00 +2°C° 0 mm 1 mps 631 mmHg 74%
    10:00 +3°C° 0 mm 1 mps 631 mmHg 74%
    11:00 +4°C° 0 mm 1 mps 631 mmHg 75%
    12:00 +5°C° 0 mm 1 mps 631 mmHg 75%
    13:00 +5°C° 0 mm 1 mps 631 mmHg 75%
    14:00 +5°C° 0 mm 1 mps 630 mmHg 76%
    15:00 +5°C° 0 mm 1 mps 630 mmHg 76%
    16:00 +4°C° 0 mm 1 mps 630 mmHg 80%
    17:00 +3°C° 0 mm 1 mps 630 mmHg 83%
    18:00 +2°C° 0 mm 1 mps 630 mmHg 87%
    19:00 +2°C° 0 mm 1 mps 630 mmHg 88%
    20:00 +2°C° 0 mm 1 mps 630 mmHg 89%
    21:00 0°C° 0 mm 0 mps 631 mmHg 91%
    22:00 0°C° 0 mm 0 mps 631 mmHg 91%
    23:00 0°C° 0 mm 0 mps 631 mmHg 91%

    24 February, Saturday

    Time Temperature Precipitation Wind Pressure Humidity
    00:00 0°C° 0 mm 0 mps 631 mmHg 91%
    01:00 -1°C° 0 mm 0 mps 631 mmHg 91%
    02:00 -1°C° 0 mm 0 mps 630 mmHg 91%
    03:00 0°C° 0 mm 1 mps 630 mmHg 91%
    04:00 0°C° 0 mm 1 mps 630 mmHg 89%
    05:00 -1°C° 0 mm 1 mps 630 mmHg 88%
    06:00 -1°C° 0 mm 1 mps 630 mmHg 86%
    07:00 0°C° 0 mm 1 mps 631 mmHg 82%
    08:00 +2°C° 0 mm 1 mps 631 mmHg 77%
    09:00 +3°C° 0 mm 1 mps 632 mmHg 73%
    10:00 +4°C° 0 mm 1 mps 631 mmHg 71%
    11:00 +5°C° 0 mm 1 mps 631 mmHg 70%
    12:00 +6°C° 0 mm 1 mps 631 mmHg 68%
    13:00 +6°C° 0 mm 1 mps 631 mmHg 67%
    14:00 +6°C° 0 mm 1 mps 631 mmHg 65%
    15:00 +7°C° 0 mm 1 mps 630 mmHg 64%
    16:00 +5°C° 0 mm 1 mps 630 mmHg 67%
    17:00 +3°C° 0 mm 0 mps 630 mmHg 69%
    18:00 +1°C° 0 mm 0 mps 630 mmHg 72%
    19:00 +1°C° 0 mm 0 mps 630 mmHg 73%
    20:00 0°C° 0 mm 0 mps 630 mmHg 73%
    21:00 0°C° 0 mm 0 mps 630 mmHg 74%
    22:00 0°C° 0 mm 0 mps 631 mmHg 74%
    23:00 -1°C° 0 mm 0 mps 631 mmHg 74%
    Show more